User: anonymous
Location: Mentone
(34.5413°N, 85.5351°W)
Time: 15:52:19
(UTC-05:00)
Language:

Okean O Rocket - Orbit

View from above orbital plane
View from above orbital plane
View from above satellite
View from above satellite

Ground track
Ground track

The orbit data is extracted from the following two-line orbital elements,

1 25861U 99039B   14210.44079603  .00000235  00000-0  39955-4 0  6872
2 25861 097.9526 168.8311 0014850 235.6308 277.1619 14.77730912810109
Epoch (UTC): 29 July 2014 10:34:44
Eccentricity: 0.0014850
inclination: 97.9526°
perigee height: 626 km
apogee height: 647 km
right ascension of ascending node: 168.8311°
argument of perigee: 235.6308°
revolutions per day: 14.77730912
mean anomaly at epoch: 277.1619°
orbit number at epoch: 81010

The dashed part of the orbit path shows where the satellite is in the earth's shadow,  

DLR